• In Uzbekistan
  • List of Countries
  • For 7 days
  • Water Temperature
  • Satellite Maps
  • Weather Map
  • Weather Widgets
  • user-avatar
    Login

    Hourly Weather Cabreuva

    Today, 15 December, Friday

    Time Temperature Precipitation Wind Pressure Humidity
    00:00 +21°C° 0 mm 2 mps 703 mmHg 80%
    01:00 +21°C° 0 mm 2 mps 703 mmHg 80%
    02:00 +21°C° 0 mm 2 mps 703 mmHg 80%
    03:00 +21°C° 0 mm 2 mps 702 mmHg 80%
    04:00 +21°C° 0 mm 2 mps 702 mmHg 81%
    05:00 +21°C° 0 mm 2 mps 702 mmHg 82%
    06:00 +22°C° 0 mm 1 mps 703 mmHg 83%
    07:00 +24°C° 0 mm 2 mps 703 mmHg 75%
    08:00 +26°C° 0 mm 2 mps 704 mmHg 66%
    09:00 +29°C° 0 mm 3 mps 705 mmHg 58%
    10:00 +30°C° 0 mm 3 mps 704 mmHg 53%
    11:00 +31°C° 0 mm 2 mps 704 mmHg 48%
    12:00 +34°C° 0 mm 2 mps 704 mmHg 43%
    13:00 +32°C° 0 mm 2 mps 704 mmHg 44%
    14:00 +32°C° 0 mm 2 mps 703 mmHg 45%
    15:00 +32°C° 0 mm 2 mps 703 mmHg 46%
    16:00 +31°C° 0.1 mm 2 mps 702 mmHg 50%
    17:00 +30°C° 0.1 mm 2 mps 702 mmHg 54%
    18:00 +29°C° 0.1 mm 2 mps 702 mmHg 59%
    19:00 +28°C° 0 mm 2 mps 702 mmHg 63%
    20:00 +26°C° 0 mm 2 mps 702 mmHg 67%
    21:00 +25°C° 0 mm 3 mps 702 mmHg 71%
    22:00 +24°C° 0.2 mm 2 mps 702 mmHg 73%
    23:00 +24°C° 0.2 mm 2 mps 702 mmHg 75%

    Tomorrow, 16 December, Saturday

    Time Temperature Precipitation Wind Pressure Humidity
    00:00 +23°C° 0.2 mm 2 mps 703 mmHg 77%
    01:00 +23°C° 0 mm 2 mps 702 mmHg 77%
    02:00 +22°C° 0 mm 1 mps 702 mmHg 78%
    03:00 +22°C° 0 mm 1 mps 702 mmHg 78%
    04:00 +22°C° 0 mm 1 mps 702 mmHg 78%
    05:00 +22°C° 0 mm 1 mps 703 mmHg 77%
    06:00 +22°C° 0 mm 1 mps 703 mmHg 77%
    07:00 +25°C° 0 mm 1 mps 703 mmHg 69%
    08:00 +27°C° 0 mm 1 mps 704 mmHg 62%
    09:00 +29°C° 0 mm 2 mps 705 mmHg 54%
    10:00 +31°C° 0 mm 2 mps 705 mmHg 50%
    11:00 +32°C° 0 mm 2 mps 704 mmHg 45%
    12:00 +35°C° 0 mm 2 mps 704 mmHg 41%
    13:00 +33°C° 0 mm 1 mps 704 mmHg 42%
    14:00 +33°C° 0 mm 1 mps 703 mmHg 43%
    15:00 +33°C° 0 mm 1 mps 702 mmHg 44%
    16:00 +32°C° 0 mm 1 mps 702 mmHg 47%
    17:00 +31°C° 0 mm 1 mps 702 mmHg 51%
    18:00 +30°C° 0 mm 1 mps 702 mmHg 54%
    19:00 +29°C° 0 mm 2 mps 702 mmHg 59%
    20:00 +27°C° 0 mm 2 mps 702 mmHg 64%
    21:00 +26°C° 0 mm 3 mps 703 mmHg 69%
    22:00 +25°C° 0 mm 2 mps 703 mmHg 71%
    23:00 +25°C° 0 mm 2 mps 703 mmHg 73%

    Day after tomorrow, 17 December, Sunday

    Time Temperature Precipitation Wind Pressure Humidity
    00:00 +24°C° 0 mm 2 mps 703 mmHg 75%
    01:00 +24°C° 0 mm 2 mps 702 mmHg 75%
    02:00 +24°C° 0 mm 2 mps 702 mmHg 76%
    03:00 +23°C° 0 mm 2 mps 701 mmHg 76%
    04:00 +22°C° 0 mm 3 mps 702 mmHg 76%
    05:00 +22°C° 0 mm 3 mps 702 mmHg 77%
    06:00 +22°C° 0 mm 3 mps 702 mmHg 77%
    07:00 +25°C° 0 mm 3 mps 703 mmHg 70%
    08:00 +27°C° 0 mm 4 mps 704 mmHg 62%
    09:00 +29°C° 0 mm 4 mps 705 mmHg 55%
    10:00 +30°C° 0 mm 4 mps 705 mmHg 52%
    11:00 +32°C° 0 mm 4 mps 705 mmHg 48%
    12:00 +34°C° 0 mm 4 mps 705 mmHg 45%
    13:00 +34°C° 0 mm 3 mps 705 mmHg 45%
    14:00 +34°C° 0 mm 3 mps 704 mmHg 44%
    15:00 +34°C° 0 mm 2 mps 703 mmHg 44%
    16:00 +32°C° 0 mm 2 mps 703 mmHg 48%
    17:00 +31°C° 0 mm 2 mps 703 mmHg 52%
    18:00 +31°C° 0 mm 1 mps 703 mmHg 55%
    19:00 +29°C° 0.2 mm 1 mps 704 mmHg 60%
    20:00 +28°C° 0.2 mm 1 mps 704 mmHg 65%
    21:00 +26°C° 0.2 mm 1 mps 705 mmHg 70%
    22:00 +25°C° 0.1 mm 2 mps 705 mmHg 73%
    23:00 +25°C° 0.1 mm 2 mps 704 mmHg 76%

    18 December, Monday

    Time Temperature Precipitation Wind Pressure Humidity
    00:00 +24°C° 0.1 mm 2 mps 704 mmHg 78%
    01:00 +24°C° 0 mm 2 mps 704 mmHg 79%
    02:00 +23°C° 0 mm 1 mps 703 mmHg 80%
    03:00 +23°C° 0 mm 1 mps 703 mmHg 81%
    04:00 +23°C° 0 mm 1 mps 703 mmHg 82%
    05:00 +23°C° 0 mm 1 mps 704 mmHg 82%
    06:00 +23°C° 0 mm 1 mps 704 mmHg 82%
    07:00 +25°C° 0 mm 2 mps 705 mmHg 73%
    08:00 +27°C° 0 mm 2 mps 705 mmHg 65%
    09:00 +29°C° 0 mm 3 mps 706 mmHg 57%
    10:00 +30°C° 0.1 mm 3 mps 706 mmHg 54%
    11:00 +31°C° 0.1 mm 2 mps 706 mmHg 52%
    12:00 +32°C° 0.1 mm 2 mps 706 mmHg 49%
    13:00 +31°C° 0.5 mm 2 mps 706 mmHg 53%
    14:00 +30°C° 0.5 mm 2 mps 705 mmHg 57%
    15:00 +30°C° 0.5 mm 2 mps 705 mmHg 61%
    16:00 +29°C° 0.7 mm 2 mps 705 mmHg 67%
    17:00 +27°C° 0.7 mm 3 mps 705 mmHg 72%
    18:00 +26°C° 0.7 mm 4 mps 705 mmHg 78%
    19:00 +25°C° 0.1 mm 4 mps 705 mmHg 80%
    20:00 +25°C° 0.1 mm 4 mps 705 mmHg 83%
    21:00 +23°C° 0.1 mm 4 mps 706 mmHg 85%
    22:00 +23°C° 0.2 mm 4 mps 706 mmHg 86%
    23:00 +22°C° 0.2 mm 3 mps 706 mmHg 87%

    19 December, Tuesday

    Time Temperature Precipitation Wind Pressure Humidity
    00:00 +22°C° 0.2 mm 3 mps 706 mmHg 88%
    01:00 +22°C° 0 mm 3 mps 706 mmHg 89%
    02:00 +22°C° 0 mm 3 mps 705 mmHg 90%
    03:00 +21°C° 0 mm 3 mps 705 mmHg 90%
    04:00 +21°C° 0 mm 2 mps 705 mmHg 90%
    05:00 +23°C° 0 mm 2 mps 706 mmHg 89%
    06:00 +23°C° 0 mm 2 mps 706 mmHg 88%
    07:00 +24°C° 0 mm 2 mps 706 mmHg 82%
    08:00 +25°C° 0 mm 2 mps 707 mmHg 75%
    09:00 +27°C° 0 mm 2 mps 707 mmHg 68%
    10:00 +28°C° 0 mm 2 mps 707 mmHg 62%
    11:00 +30°C° 0 mm 2 mps 707 mmHg 57%
    12:00 +31°C° 0 mm 2 mps 706 mmHg 51%
    13:00 +31°C° 0.1 mm 2 mps 706 mmHg 51%
    14:00 +32°C° 0.1 mm 1 mps 705 mmHg 50%
    15:00 +32°C° 0.1 mm 1 mps 705 mmHg 49%
    16:00 +31°C° 0.3 mm 2 mps 705 mmHg 57%
    17:00 +29°C° 0.3 mm 3 mps 704 mmHg 65%
    18:00 +27°C° 0.3 mm 3 mps 704 mmHg 73%
    19:00 +26°C° 0.4 mm 3 mps 704 mmHg 77%
    20:00 +25°C° 0.4 mm 4 mps 705 mmHg 82%
    21:00 +22°C° 0.4 mm 4 mps 705 mmHg 87%
    22:00 +22°C° 0.5 mm 4 mps 705 mmHg 88%
    23:00 +22°C° 0.5 mm 3 mps 705 mmHg 88%

    20 December, Wednesday

    Time Temperature Precipitation Wind Pressure Humidity
    00:00 +21°C° 0.5 mm 3 mps 705 mmHg 89%
    01:00 +21°C° 0.1 mm 3 mps 704 mmHg 90%
    02:00 +21°C° 0.1 mm 3 mps 704 mmHg 90%
    03:00 +21°C° 0.1 mm 2 mps 704 mmHg 90%
    04:00 +21°C° 0.1 mm 2 mps 704 mmHg 90%
    05:00 +21°C° 0.1 mm 2 mps 704 mmHg 90%
    06:00 +21°C° 0.1 mm 2 mps 704 mmHg 89%
    07:00 +24°C° 0 mm 2 mps 705 mmHg 81%
    08:00 +26°C° 0 mm 2 mps 705 mmHg 72%
    09:00 +28°C° 0 mm 3 mps 705 mmHg 64%
    10:00 +29°C° 0.1 mm 3 mps 705 mmHg 59%
    11:00 +30°C° 0.1 mm 3 mps 705 mmHg 55%
    12:00 +33°C° 0.1 mm 3 mps 704 mmHg 50%
    13:00 +31°C° 1.8 mm 2 mps 704 mmHg 56%
    14:00 +29°C° 1.8 mm 2 mps 703 mmHg 61%
    15:00 +28°C° 1.8 mm 2 mps 703 mmHg 67%
    16:00 +27°C° 2.9 mm 2 mps 703 mmHg 72%
    17:00 +26°C° 2.9 mm 1 mps 703 mmHg 77%
    18:00 +25°C° 2.9 mm 1 mps 703 mmHg 82%
    19:00 +24°C° 2.8 mm 1 mps 703 mmHg 83%
    20:00 +24°C° 2.8 mm 1 mps 703 mmHg 85%
    21:00 +24°C° 2.8 mm 1 mps 703 mmHg 86%
    22:00 +23°C° 2.1 mm 1 mps 703 mmHg 87%
    23:00 +23°C° 2.1 mm 1 mps 703 mmHg 87%
    Show more